Погода в Птичьем

Россия / Курганская область     55°07′13″N   63°24′19″E
темп.,
°C
ветер,
м/с
пор.,
м/с
влажн.,
%
обл.,
%
осадки,
мм/ч
давл.,
гПа
погр.,
м
10 мая, пн
пн1023:00+15ссв335055 0.0 101743
02:00+12св48605 0.0 1018128
05:00+10св4116328 0.0 1019211
08:00+14всв694978 0.0 1020537
11:00+18всв683564 0.0 10211446
14:00+19всв772834 0.0 10221793
17:00+19в672697 0.0 10231805
20:00+15всв3738100 0.0 1024135
11 мая, вт
вт1123:00+12всв3641100 0.0 1026103
02:00+11в3444100 0.0 102657
05:00+9в3350100 0.0 102825
08:00+14в33412 0.0 1028321
11:00+18вюв23290 0.0 10291470
14:00+21всв11245 0.0 10281827
17:00+21ссв0022100 0.0 10281830
20:00+18ссз1132100 0.0 102811
12 мая, ср
ср1223:00+15ссв113510 0.0 102911
02:00+13юз22390 0.0 102911
05:00+12з33415 0.0 102920
08:00+17з35377 0.0 1029262
11:00+22зсз5530100 0.0 10281033
14:00+24сз463779 0.0 10272270
17:00+22ссз5845100 0.0 1027443
20:00+19с34475 0.0 102760
13 мая, чт
чт1323:00+16ссв22568 0.0 102719
02:00+14с226091 0.0 102711
05:00+13сз226146 0.0 102812
08:00+18сз35465 0.0 1028274
11:00+23сз56365 0.0 10271478
14:00+25ссз56345 0.0 10262124
17:00+26ссз56315 0.0 10252231
20:00+22с22445 0.0 102513
14 мая, пт
пт1423:00+18в005021 0.0 102611
02:00+17з225225 0.0 102611
05:00+15зсз225775 0.0 102711
08:00+21з22435 0.0 1027223
11:00+26з34325 0.0 10261590
14:00+28зсз46280 0.0 10242636
17:00+28сз67273 0.0 10232769
20:00+24сз23400 0.0 102216